Year,Month,Day,Hour,Minute,Value (Times are PST for temperature in C)
2017,03,03,00,00,6.70
2017,03,03,00,01,6.70
2017,03,03,00,02,6.70
2017,03,03,00,03,6.70
2017,03,03,00,04,6.70
2017,03,03,00,05,6.70
2017,03,03,00,06,6.70
2017,03,03,00,07,6.80
2017,03,03,00,08,6.80
2017,03,03,00,09,6.80
2017,03,03,00,10,6.80
2017,03,03,00,11,6.80
2017,03,03,00,12,6.80
2017,03,03,00,13,6.80
2017,03,03,00,14,6.80
2017,03,03,00,15,6.80
2017,03,03,00,16,6.80
2017,03,03,00,17,6.80
2017,03,03,00,18,6.80
2017,03,03,00,19,6.80
2017,03,03,00,20,6.80
2017,03,03,00,21,6.80
2017,03,03,00,22,6.80
2017,03,03,00,23,6.80
2017,03,03,00,24,6.80
2017,03,03,00,25,6.80
2017,03,03,00,26,6.90
2017,03,03,00,27,6.90
2017,03,03,00,28,6.90
2017,03,03,00,29,6.90
2017,03,03,00,30,6.90
2017,03,03,00,31,6.90
2017,03,03,00,32,6.90
2017,03,03,00,33,6.90
2017,03,03,00,34,6.90
2017,03,03,00,35,6.90
2017,03,03,00,36,6.90
2017,03,03,00,37,6.90
2017,03,03,00,38,7.00
2017,03,03,00,39,7.00
2017,03,03,00,40,7.00
2017,03,03,00,41,7.00
2017,03,03,00,42,7.00
2017,03,03,00,43,7.00
2017,03,03,00,44,7.00
2017,03,03,00,45,7.00
2017,03,03,00,46,7.00
2017,03,03,00,47,7.10
2017,03,03,00,48,7.10
2017,03,03,00,49,7.10
2017,03,03,00,50,7.10
2017,03,03,00,51,7.10
2017,03,03,00,52,7.10
2017,03,03,00,53,7.10
2017,03,03,00,54,7.10
2017,03,03,00,55,7.10
2017,03,03,00,56,7.10
2017,03,03,00,57,7.10
2017,03,03,00,58,7.10
2017,03,03,00,59,7.10
2017,03,03,01,00,7.10
2017,03,03,01,01,7.10
2017,03,03,01,02,7.10
2017,03,03,01,03,7.10
2017,03,03,01,04,7.10
2017,03,03,01,05,7.10
2017,03,03,01,06,7.10
2017,03,03,01,07,7.10
2017,03,03,01,08,7.10
2017,03,03,01,09,7.10
2017,03,03,01,10,7.10
2017,03,03,01,11,7.10
2017,03,03,01,12,7.00
2017,03,03,01,13,7.00
2017,03,03,01,14,7.00
2017,03,03,01,15,7.00
2017,03,03,01,16,7.00
2017,03,03,01,17,7.00
2017,03,03,01,18,7.00
2017,03,03,01,19,7.00
2017,03,03,01,20,7.00
2017,03,03,01,21,7.00
2017,03,03,01,22,7.00
2017,03,03,01,23,7.00
2017,03,03,01,24,7.00
2017,03,03,01,25,7.00
2017,03,03,01,26,7.00
2017,03,03,01,27,7.00
2017,03,03,01,28,7.00
2017,03,03,01,29,6.90
2017,03,03,01,30,6.90
2017,03,03,01,31,6.90
2017,03,03,01,32,6.90
2017,03,03,01,33,6.90
2017,03,03,01,34,6.90
2017,03,03,01,35,6.90
2017,03,03,01,36,6.90
2017,03,03,01,37,6.90
2017,03,03,01,38,6.90
2017,03,03,01,39,6.90
2017,03,03,01,40,6.90
2017,03,03,01,41,6.90
2017,03,03,01,42,6.90
2017,03,03,01,43,6.90
2017,03,03,01,44,6.90
2017,03,03,01,45,6.80
2017,03,03,01,46,6.80
2017,03,03,01,47,6.80
2017,03,03,01,48,6.80
2017,03,03,01,49,6.80
2017,03,03,01,50,6.80
2017,03,03,01,51,6.80
2017,03,03,01,52,6.80
2017,03,03,01,53,6.90
2017,03,03,01,54,6.90
2017,03,03,01,55,6.90
2017,03,03,01,56,6.90
2017,03,03,01,57,6.90
2017,03,03,01,58,6.90
2017,03,03,01,59,6.90
2017,03,03,02,00,6.90
2017,03,03,02,01,6.90
2017,03,03,02,02,6.90
2017,03,03,02,03,6.90
2017,03,03,02,04,6.90
2017,03,03,02,05,6.90
2017,03,03,02,06,6.90
2017,03,03,02,07,6.90
2017,03,03,02,08,6.90
2017,03,03,02,09,7.00
2017,03,03,02,10,7.00
2017,03,03,02,11,7.00
2017,03,03,02,12,7.00
2017,03,03,02,13,7.00
2017,03,03,02,14,7.00
2017,03,03,02,15,7.00
2017,03,03,02,16,7.00
2017,03,03,02,17,7.00
2017,03,03,02,18,7.00
2017,03,03,02,19,7.00
2017,03,03,02,20,7.00
2017,03,03,02,21,7.00
2017,03,03,02,22,7.00
2017,03,03,02,23,7.00
2017,03,03,02,24,7.00
2017,03,03,02,25,7.00
2017,03,03,02,26,7.00
2017,03,03,02,27,7.00
2017,03,03,02,28,7.00
2017,03,03,02,29,7.00
2017,03,03,02,30,7.00
2017,03,03,02,31,7.00
2017,03,03,02,32,7.00
2017,03,03,02,33,7.00
2017,03,03,02,34,7.00
2017,03,03,02,35,7.10
2017,03,03,02,36,7.10
2017,03,03,02,37,7.10
2017,03,03,02,38,7.10
2017,03,03,02,39,7.10
2017,03,03,02,40,7.10
2017,03,03,02,41,7.10
2017,03,03,02,42,7.10
2017,03,03,02,43,7.10
2017,03,03,02,44,7.10
2017,03,03,02,45,7.10
2017,03,03,02,46,7.10
2017,03,03,02,47,7.10
2017,03,03,02,48,7.10
2017,03,03,02,49,7.10
2017,03,03,02,50,7.10
2017,03,03,02,51,7.10
2017,03,03,02,52,7.10
2017,03,03,02,53,7.10
2017,03,03,02,54,7.10
2017,03,03,02,55,7.10
2017,03,03,02,56,7.10
2017,03,03,02,57,7.10
2017,03,03,02,58,7.20
2017,03,03,02,59,7.10
2017,03,03,03,00,7.20
2017,03,03,03,01,7.20
2017,03,03,03,02,7.20
2017,03,03,03,03,7.20
2017,03,03,03,04,7.20
2017,03,03,03,05,7.20
2017,03,03,03,06,7.20
2017,03,03,03,07,7.20
2017,03,03,03,08,7.20
2017,03,03,03,09,7.20
2017,03,03,03,10,7.20
2017,03,03,03,11,7.20
2017,03,03,03,12,7.20
2017,03,03,03,13,7.20
2017,03,03,03,14,7.20
2017,03,03,03,15,7.20
2017,03,03,03,16,7.20
2017,03,03,03,17,7.20
2017,03,03,03,18,7.20
2017,03,03,03,19,7.20
2017,03,03,03,20,7.20
2017,03,03,03,21,7.20
2017,03,03,03,22,7.20
2017,03,03,03,23,7.20
2017,03,03,03,24,7.20
2017,03,03,03,25,7.20
2017,03,03,03,26,7.20
2017,03,03,03,27,7.20
2017,03,03,03,28,7.20
2017,03,03,03,29,7.20
2017,03,03,03,30,7.20
2017,03,03,03,31,7.20
2017,03,03,03,32,7.20
2017,03,03,03,33,7.20
2017,03,03,03,34,7.20
2017,03,03,03,35,7.10
2017,03,03,03,36,7.10
2017,03,03,03,37,7.10
2017,03,03,03,38,7.10
2017,03,03,03,39,7.10
2017,03,03,03,40,7.10
2017,03,03,03,41,7.10
2017,03,03,03,42,7.10
2017,03,03,03,43,7.10
2017,03,03,03,44,7.10
2017,03,03,03,45,7.10
2017,03,03,03,46,7.10
2017,03,03,03,47,7.20
2017,03,03,03,48,7.20
2017,03,03,03,49,7.20
2017,03,03,03,50,7.20
2017,03,03,03,51,7.20
2017,03,03,03,52,7.20
2017,03,03,03,53,7.20
2017,03,03,03,54,7.20
2017,03,03,03,55,7.20
2017,03,03,03,56,7.20
2017,03,03,03,57,7.20
2017,03,03,03,58,7.20
2017,03,03,03,59,7.20
2017,03,03,04,00,7.20
2017,03,03,04,01,7.20
2017,03,03,04,02,7.20
2017,03,03,04,03,7.20
2017,03,03,04,04,7.20
2017,03,03,04,05,7.20
2017,03,03,04,06,7.30
2017,03,03,04,07,7.30
2017,03,03,04,08,7.30
2017,03,03,04,09,7.30
2017,03,03,04,10,7.30
2017,03,03,04,11,7.30
2017,03,03,04,12,7.30
2017,03,03,04,13,7.30
2017,03,03,04,14,7.30
2017,03,03,04,15,7.20
2017,03,03,04,16,7.30
2017,03,03,04,17,7.20
2017,03,03,04,18,7.20
2017,03,03,04,19,7.20
2017,03,03,04,20,7.20
2017,03,03,04,21,7.30
2017,03,03,04,22,7.20
2017,03,03,04,23,7.20
2017,03,03,04,24,7.20
2017,03,03,04,25,7.20
2017,03,03,04,26,7.20
2017,03,03,04,27,7.20
2017,03,03,04,28,7.20
2017,03,03,04,29,7.20
2017,03,03,04,30,7.20
2017,03,03,04,31,7.20
2017,03,03,04,32,7.20
2017,03,03,04,33,7.20
2017,03,03,04,34,7.20
2017,03,03,04,35,7.20
2017,03,03,04,36,7.20
2017,03,03,04,37,7.20
2017,03,03,04,38,7.20
2017,03,03,04,39,7.20
2017,03,03,04,40,7.20
2017,03,03,04,41,7.20
2017,03,03,04,42,7.20
2017,03,03,04,43,7.20
2017,03,03,04,44,7.20
2017,03,03,04,45,7.20
2017,03,03,04,46,7.20
2017,03,03,04,47,7.20
2017,03,03,04,48,7.20
2017,03,03,04,49,7.20
2017,03,03,04,50,7.20
2017,03,03,04,51,7.20
2017,03,03,04,52,7.20
2017,03,03,04,53,7.20
2017,03,03,04,54,7.20
2017,03,03,04,55,7.20
2017,03,03,04,56,7.20
2017,03,03,04,57,7.20
2017,03,03,04,58,7.20
2017,03,03,04,59,7.20
2017,03,03,05,00,7.20
2017,03,03,05,01,7.20
2017,03,03,05,02,7.20
2017,03,03,05,03,7.20
2017,03,03,05,04,7.20
2017,03,03,05,05,7.20
2017,03,03,05,06,7.20
2017,03,03,05,07,7.20
2017,03,03,05,08,7.20
2017,03,03,05,09,7.20
2017,03,03,05,10,7.20
2017,03,03,05,11,7.20
2017,03,03,05,12,7.20
2017,03,03,05,13,7.20
2017,03,03,05,14,7.20
2017,03,03,05,15,7.20
2017,03,03,05,16,7.20
2017,03,03,05,17,7.20
2017,03,03,05,18,7.20
2017,03,03,05,19,7.20
2017,03,03,05,20,7.10
2017,03,03,05,21,7.10
2017,03,03,05,22,7.10
2017,03,03,05,23,7.10
2017,03,03,05,24,7.20
2017,03,03,05,25,7.20
2017,03,03,05,26,7.20
2017,03,03,05,27,7.20
2017,03,03,05,28,7.20
2017,03,03,05,29,7.20
2017,03,03,05,30,7.20
2017,03,03,05,31,7.20
2017,03,03,05,32,7.20
2017,03,03,05,33,7.20
2017,03,03,05,34,7.20
2017,03,03,05,35,7.20
2017,03,03,05,36,7.20
2017,03,03,05,37,7.20
2017,03,03,05,38,7.20
2017,03,03,05,39,7.20
2017,03,03,05,40,7.20
2017,03,03,05,41,7.20
2017,03,03,05,42,7.20
2017,03,03,05,43,7.20
2017,03,03,05,44,7.20
2017,03,03,05,45,7.20
2017,03,03,05,46,7.20
2017,03,03,05,47,7.10
2017,03,03,05,48,7.10
2017,03,03,05,49,7.10
2017,03,03,05,50,7.10
2017,03,03,05,51,7.10
2017,03,03,05,52,7.10
2017,03,03,05,53,7.10
2017,03,03,05,54,7.10
2017,03,03,05,55,7.10
2017,03,03,05,56,7.10
2017,03,03,05,57,7.10
2017,03,03,05,58,7.10
2017,03,03,05,59,7.10
2017,03,03,06,00,7.10
2017,03,03,06,01,7.10
2017,03,03,06,02,7.10
2017,03,03,06,03,7.10
2017,03,03,06,04,7.20
2017,03,03,06,05,7.20
2017,03,03,06,06,7.20
2017,03,03,06,07,7.20
2017,03,03,06,08,7.20
2017,03,03,06,09,7.20
2017,03,03,06,10,7.20
2017,03,03,06,11,7.20
2017,03,03,06,12,7.20
2017,03,03,06,13,7.20
2017,03,03,06,14,7.20
2017,03,03,06,15,7.20
2017,03,03,06,16,7.20
2017,03,03,06,17,7.20
2017,03,03,06,18,7.20
2017,03,03,06,19,7.20
2017,03,03,06,20,7.20
2017,03,03,06,21,7.20
2017,03,03,06,22,7.20
2017,03,03,06,23,7.20
2017,03,03,06,24,7.20
2017,03,03,06,25,7.20
2017,03,03,06,26,7.20
2017,03,03,06,27,7.20
2017,03,03,06,28,7.20
2017,03,03,06,29,7.20
2017,03,03,06,30,7.20
2017,03,03,06,31,7.20
2017,03,03,06,32,7.20
2017,03,03,06,33,7.20
2017,03,03,06,34,7.20
2017,03,03,06,35,7.20
2017,03,03,06,36,7.20
2017,03,03,06,37,7.20
2017,03,03,06,38,7.20
2017,03,03,06,39,7.20
2017,03,03,06,40,7.20
2017,03,03,06,41,7.20
2017,03,03,06,42,7.20
2017,03,03,06,43,7.20
2017,03,03,06,44,7.20
2017,03,03,06,45,7.20
2017,03,03,06,46,7.30
2017,03,03,06,47,7.30
2017,03,03,06,48,7.30
2017,03,03,06,49,7.30
2017,03,03,06,50,7.30
2017,03,03,06,51,7.30
2017,03,03,06,52,7.30
2017,03,03,06,53,7.30
2017,03,03,06,54,7.30
2017,03,03,06,55,7.30
2017,03,03,06,56,7.30
2017,03,03,06,57,7.30
2017,03,03,06,58,7.30
2017,03,03,06,59,7.30
2017,03,03,07,00,7.30
2017,03,03,07,01,7.30
2017,03,03,07,02,7.30
2017,03,03,07,03,7.30
2017,03,03,07,04,7.30
2017,03,03,07,05,7.30
2017,03,03,07,06,7.30
2017,03,03,07,07,7.30
2017,03,03,07,08,7.30
2017,03,03,07,09,7.30
2017,03,03,07,10,7.30
2017,03,03,07,11,7.30
2017,03,03,07,12,7.30
2017,03,03,07,13,7.30
2017,03,03,07,14,7.30
2017,03,03,07,15,7.30
2017,03,03,07,16,7.30
2017,03,03,07,17,7.30
2017,03,03,07,18,7.30
2017,03,03,07,19,7.30
2017,03,03,07,20,7.30
2017,03,03,07,21,7.30
2017,03,03,07,22,7.30
2017,03,03,07,23,7.30
2017,03,03,07,24,7.30
2017,03,03,07,25,7.30
2017,03,03,07,26,7.30
2017,03,03,07,27,7.30
2017,03,03,07,28,7.30
2017,03,03,07,29,7.40
2017,03,03,07,30,7.30
2017,03,03,07,31,7.40
2017,03,03,07,32,7.40
2017,03,03,07,33,7.40
2017,03,03,07,34,7.40
2017,03,03,07,35,7.40
2017,03,03,07,36,7.50
2017,03,03,07,37,7.50
2017,03,03,07,38,7.50
2017,03,03,07,39,7.50
2017,03,03,07,40,7.50
2017,03,03,07,41,7.60
2017,03,03,07,42,7.60
2017,03,03,07,43,7.60
2017,03,03,07,44,7.70
2017,03,03,07,45,7.70
2017,03,03,07,46,7.70
2017,03,03,07,47,7.70
2017,03,03,07,48,7.70
2017,03,03,07,49,7.70
2017,03,03,07,50,7.70
2017,03,03,07,51,7.70
2017,03,03,07,52,7.80
2017,03,03,07,53,7.80
2017,03,03,07,54,7.80
2017,03,03,07,55,7.80
2017,03,03,07,56,7.80
2017,03,03,07,57,7.80
2017,03,03,07,58,7.80
2017,03,03,07,59,7.80
2017,03,03,08,00,7.80
2017,03,03,08,01,7.80
2017,03,03,08,02,7.80
2017,03,03,08,03,7.80
2017,03,03,08,04,7.80
2017,03,03,08,05,7.80
2017,03,03,08,06,7.80
2017,03,03,08,07,7.80
2017,03,03,08,08,7.80
2017,03,03,08,09,7.80
2017,03,03,08,10,7.80
2017,03,03,08,11,7.80
2017,03,03,08,12,7.80
2017,03,03,08,13,7.80
2017,03,03,08,14,7.80
2017,03,03,08,15,7.80
2017,03,03,08,16,7.80
2017,03,03,08,17,7.80
2017,03,03,08,18,7.80
2017,03,03,08,19,7.80
2017,03,03,08,20,7.70
2017,03,03,08,21,7.70
2017,03,03,08,22,7.70
2017,03,03,08,23,7.70
2017,03,03,08,24,7.70
2017,03,03,08,25,7.70
2017,03,03,08,26,7.70
2017,03,03,08,27,7.60
2017,03,03,08,28,7.60
2017,03,03,08,29,7.60
2017,03,03,08,30,7.60
2017,03,03,08,31,7.60
2017,03,03,08,32,7.60
2017,03,03,08,33,7.60
2017,03,03,08,34,7.60
2017,03,03,08,35,7.60
2017,03,03,08,36,7.60
2017,03,03,08,37,7.60
2017,03,03,08,38,7.60
2017,03,03,08,39,7.60
2017,03,03,08,40,7.60
2017,03,03,08,41,7.60
2017,03,03,08,42,7.50
2017,03,03,08,43,7.50
2017,03,03,08,44,7.50
2017,03,03,08,45,7.50
2017,03,03,08,46,7.50
2017,03,03,08,47,7.50
2017,03,03,08,48,7.50
2017,03,03,08,49,7.50
2017,03,03,08,50,7.50
2017,03,03,08,51,7.40
2017,03,03,08,52,7.40
2017,03,03,08,53,7.40
2017,03,03,08,54,7.40
2017,03,03,08,55,7.40
2017,03,03,08,56,7.40
2017,03,03,08,57,7.40
2017,03,03,08,58,7.40
2017,03,03,08,59,7.30
2017,03,03,09,00,7.30
2017,03,03,09,01,7.30
2017,03,03,09,02,7.20
2017,03,03,09,03,7.20
2017,03,03,09,04,7.20
2017,03,03,09,05,7.20
2017,03,03,09,06,7.10
2017,03,03,09,07,7.10
2017,03,03,09,08,7.10
2017,03,03,09,09,7.00
2017,03,03,09,10,7.00
2017,03,03,09,11,7.00
2017,03,03,09,12,6.90
2017,03,03,09,13,6.90
2017,03,03,09,14,6.90
2017,03,03,09,15,6.80
2017,03,03,09,16,6.80
2017,03,03,09,17,6.80
2017,03,03,09,18,6.80
2017,03,03,09,19,6.80
2017,03,03,09,20,6.80
2017,03,03,09,21,6.80
2017,03,03,09,22,6.80
2017,03,03,09,23,6.80
2017,03,03,09,24,6.80
2017,03,03,09,25,6.80
2017,03,03,09,26,6.80
2017,03,03,09,27,6.80
2017,03,03,09,28,6.80
2017,03,03,09,29,6.90
2017,03,03,09,30,6.90
2017,03,03,09,31,6.90
2017,03,03,09,32,6.90
2017,03,03,09,33,6.90
2017,03,03,09,34,6.90
2017,03,03,09,35,6.90
2017,03,03,09,36,6.90
2017,03,03,09,37,6.90
2017,03,03,09,38,6.90
2017,03,03,09,39,7.00
2017,03,03,09,40,7.00
2017,03,03,09,41,7.00
2017,03,03,09,42,7.00
2017,03,03,09,43,7.00
2017,03,03,09,44,7.00
2017,03,03,09,45,7.00
2017,03,03,09,46,7.00
2017,03,03,09,47,7.00
2017,03,03,09,48,7.10
2017,03,03,09,49,7.10
2017,03,03,09,50,7.10
2017,03,03,09,51,7.10
2017,03,03,09,52,7.10
2017,03,03,09,53,7.10
2017,03,03,09,54,7.10
2017,03,03,09,55,7.10
2017,03,03,09,56,7.00
2017,03,03,09,57,7.00
2017,03,03,09,58,7.00
2017,03,03,09,59,7.00
2017,03,03,10,00,7.00
2017,03,03,10,01,7.00
2017,03,03,10,02,7.00
2017,03,03,10,03,7.00
2017,03,03,10,04,7.00
2017,03,03,10,05,6.90
2017,03,03,10,06,7.00
2017,03,03,10,07,6.90
2017,03,03,10,08,6.90
2017,03,03,10,09,6.90
2017,03,03,10,10,6.90
2017,03,03,10,11,6.90
2017,03,03,10,12,6.90
2017,03,03,10,13,6.90
2017,03,03,10,14,6.90
2017,03,03,10,15,6.90
2017,03,03,10,16,6.90
2017,03,03,10,17,6.90
2017,03,03,10,18,6.90
2017,03,03,10,19,6.90
2017,03,03,10,20,6.90
2017,03,03,10,21,6.90
2017,03,03,10,22,6.90
2017,03,03,10,23,6.90
2017,03,03,10,24,6.90
2017,03,03,10,25,6.90
2017,03,03,10,26,6.90
2017,03,03,10,27,6.90
2017,03,03,10,28,7.00
2017,03,03,10,29,7.00
2017,03,03,10,30,7.00
2017,03,03,10,31,7.00
2017,03,03,10,32,7.10
2017,03,03,10,33,7.10
2017,03,03,10,34,7.10
2017,03,03,10,35,7.10
2017,03,03,10,36,7.10
2017,03,03,10,37,7.10
2017,03,03,10,38,7.10
2017,03,03,10,39,7.10
2017,03,03,10,40,7.10
2017,03,03,10,41,7.10
2017,03,03,10,42,7.10
2017,03,03,10,43,7.10
2017,03,03,10,44,7.10
2017,03,03,10,45,7.10
2017,03,03,10,46,7.10
2017,03,03,10,47,7.10
2017,03,03,10,48,7.10
2017,03,03,10,49,7.10
2017,03,03,10,50,7.10
2017,03,03,10,51,7.10
2017,03,03,10,52,7.10
2017,03,03,10,53,7.10
2017,03,03,10,54,7.10
2017,03,03,10,55,7.10
2017,03,03,10,56,7.10
2017,03,03,10,57,7.20
2017,03,03,10,58,7.10
2017,03,03,10,59,7.10
2017,03,03,11,00,7.10
2017,03,03,11,01,7.20
2017,03,03,11,02,7.20
2017,03,03,11,03,7.20
2017,03,03,11,04,7.20
2017,03,03,11,05,7.20
2017,03,03,11,06,7.20
2017,03,03,11,07,7.20
2017,03,03,11,08,7.20
2017,03,03,11,09,7.20
2017,03,03,11,10,7.20
2017,03,03,11,11,7.20
2017,03,03,11,12,7.20
2017,03,03,11,13,7.20
2017,03,03,11,14,7.20
2017,03,03,11,15,7.20
2017,03,03,11,16,7.20
2017,03,03,11,17,7.20
2017,03,03,11,18,7.20
2017,03,03,11,19,7.20
2017,03,03,11,20,7.20
2017,03,03,11,21,7.20
2017,03,03,11,22,7.20
2017,03,03,11,23,7.20
2017,03,03,11,24,7.20
2017,03,03,11,25,7.20
2017,03,03,11,26,7.20
2017,03,03,11,27,7.20
2017,03,03,11,28,7.20
2017,03,03,11,29,7.20
2017,03,03,11,30,7.20
2017,03,03,11,31,7.20
2017,03,03,11,32,7.20
2017,03,03,11,33,7.20
2017,03,03,11,34,7.20
2017,03,03,11,35,7.30
2017,03,03,11,36,7.30
2017,03,03,11,37,7.30
2017,03,03,11,38,7.30
2017,03,03,11,39,7.30
2017,03,03,11,40,7.30
2017,03,03,11,41,7.30
2017,03,03,11,42,7.30
2017,03,03,11,43,7.30
2017,03,03,11,44,7.30
2017,03,03,11,45,7.30
2017,03,03,11,46,7.30
2017,03,03,11,47,7.30
2017,03,03,11,48,7.30
2017,03,03,11,49,7.20
2017,03,03,11,50,7.20
2017,03,03,11,51,7.20
2017,03,03,11,52,7.20
2017,03,03,11,53,7.10
2017,03,03,11,54,7.10
2017,03,03,11,55,7.00
2017,03,03,11,56,7.00
2017,03,03,11,57,6.90
2017,03,03,11,58,6.90
2017,03,03,11,59,6.80
2017,03,03,12,00,6.80
2017,03,03,12,01,6.80
2017,03,03,12,02,6.80
2017,03,03,12,03,6.80
2017,03,03,12,04,6.80
2017,03,03,12,05,6.80
2017,03,03,12,06,6.80
2017,03,03,12,07,6.80
2017,03,03,12,08,6.70
2017,03,03,12,09,6.70
2017,03,03,12,10,6.70
2017,03,03,12,11,6.70
2017,03,03,12,12,6.70
2017,03,03,12,13,6.70
2017,03,03,12,14,6.70
2017,03,03,12,15,6.70
2017,03,03,12,16,6.70
2017,03,03,12,17,6.70
2017,03,03,12,18,6.70
2017,03,03,12,19,6.70
2017,03,03,12,20,6.70
2017,03,03,12,21,6.70
2017,03,03,12,22,6.70
2017,03,03,12,23,6.60
2017,03,03,12,24,6.60
2017,03,03,12,25,6.60
2017,03,03,12,26,6.60
2017,03,03,12,27,6.60
2017,03,03,12,28,6.60
2017,03,03,12,29,6.60
2017,03,03,12,30,6.60
2017,03,03,12,31,6.60
2017,03,03,12,32,6.60
2017,03,03,12,33,6.60
2017,03,03,12,34,6.60
2017,03,03,12,35,6.60
2017,03,03,12,36,6.60
2017,03,03,12,37,6.60
2017,03,03,12,38,6.60
2017,03,03,12,39,6.50
2017,03,03,12,40,6.50
2017,03,03,12,41,6.50
2017,03,03,12,42,6.50
2017,03,03,12,43,6.50
2017,03,03,12,44,6.50
2017,03,03,12,45,6.50
2017,03,03,12,46,6.50
2017,03,03,12,47,6.50
2017,03,03,12,48,6.50
2017,03,03,12,49,6.50
2017,03,03,12,50,6.50
2017,03,03,12,51,6.50
2017,03,03,12,52,6.50
2017,03,03,12,53,6.40
2017,03,03,12,54,6.40
2017,03,03,12,55,6.40
2017,03,03,12,56,6.50
2017,03,03,12,57,6.50
2017,03,03,12,58,6.50
2017,03,03,12,59,6.50
2017,03,03,13,00,6.40
2017,03,03,13,01,6.40
2017,03,03,13,02,6.40
2017,03,03,13,03,6.40
2017,03,03,13,04,6.40
2017,03,03,13,05,6.40
2017,03,03,13,06,6.40
2017,03,03,13,07,6.40
2017,03,03,13,08,6.40
2017,03,03,13,09,6.40
2017,03,03,13,10,6.40
2017,03,03,13,11,6.40
2017,03,03,13,12,6.40
2017,03,03,13,13,6.40
2017,03,03,13,14,6.40
2017,03,03,13,15,6.40
2017,03,03,13,16,6.40
2017,03,03,13,17,6.30
2017,03,03,13,18,6.30
2017,03,03,13,19,6.30
2017,03,03,13,20,6.30
2017,03,03,13,21,6.30
2017,03,03,13,22,6.30
2017,03,03,13,23,6.20
2017,03,03,13,24,6.20
2017,03,03,13,25,6.20
2017,03,03,13,26,6.20
2017,03,03,13,27,6.20
2017,03,03,13,28,6.20
2017,03,03,13,29,6.20
2017,03,03,13,30,6.20
2017,03,03,13,31,6.20
2017,03,03,13,32,6.20
2017,03,03,13,33,6.20
2017,03,03,13,34,6.20
2017,03,03,13,35,6.20
2017,03,03,13,36,6.20
2017,03,03,13,37,6.10
2017,03,03,13,38,6.10
2017,03,03,13,39,6.10
2017,03,03,13,40,6.10
2017,03,03,13,41,6.10
2017,03,03,13,42,6.10
2017,03,03,13,43,6.10
2017,03,03,13,44,6.10
2017,03,03,13,45,6.10
2017,03,03,13,46,6.10
2017,03,03,13,47,6.10
2017,03,03,13,48,6.10
2017,03,03,13,49,6.10
2017,03,03,13,50,6.10
2017,03,03,13,51,6.10
2017,03,03,13,52,6.10
2017,03,03,13,53,6.10
2017,03,03,13,54,6.00
2017,03,03,13,55,6.00
2017,03,03,13,56,6.00
2017,03,03,13,57,6.00
2017,03,03,13,58,6.00
2017,03,03,13,59,6.00
2017,03,03,14,00,6.00
2017,03,03,14,01,6.00
2017,03,03,14,02,6.00
2017,03,03,14,03,6.00
2017,03,03,14,04,6.00
2017,03,03,14,05,6.00
2017,03,03,14,06,6.00
2017,03,03,14,07,6.00
2017,03,03,14,08,6.00
2017,03,03,14,09,6.00
2017,03,03,14,10,6.00
2017,03,03,14,11,6.00
2017,03,03,14,12,6.00
2017,03,03,14,13,6.00
2017,03,03,14,14,6.00
2017,03,03,14,15,6.00
2017,03,03,14,16,5.90
2017,03,03,14,17,5.90
2017,03,03,14,18,5.90
2017,03,03,14,19,5.90
2017,03,03,14,20,5.90
2017,03,03,14,21,5.90
2017,03,03,14,22,5.90
2017,03,03,14,23,5.90
2017,03,03,14,24,5.90
2017,03,03,14,25,5.80
2017,03,03,14,26,5.80
2017,03,03,14,27,5.80
2017,03,03,14,28,5.80
2017,03,03,14,29,5.80
2017,03,03,14,30,5.80
2017,03,03,14,31,5.80
2017,03,03,14,32,5.80
2017,03,03,14,33,5.80
2017,03,03,14,34,5.80
2017,03,03,14,35,5.70
2017,03,03,14,36,5.70
2017,03,03,14,37,5.70
2017,03,03,14,38,5.70
2017,03,03,14,39,5.70
2017,03,03,14,40,5.70
2017,03,03,14,41,5.70
2017,03,03,14,42,5.70
2017,03,03,14,43,5.70
2017,03,03,14,44,5.70
2017,03,03,14,45,5.70
2017,03,03,14,46,5.60
2017,03,03,14,47,5.70
2017,03,03,14,48,5.70
2017,03,03,14,49,5.60
2017,03,03,14,50,5.60
2017,03,03,14,51,5.70
2017,03,03,14,52,5.70
2017,03,03,14,53,5.70
2017,03,03,14,54,5.70
2017,03,03,14,55,5.70
2017,03,03,14,56,5.70
2017,03,03,14,57,5.70
2017,03,03,14,58,5.70
2017,03,03,14,59,5.70
2017,03,03,15,00,5.70
2017,03,03,15,01,5.60
2017,03,03,15,02,5.60
2017,03,03,15,03,5.60
2017,03,03,15,04,5.60
2017,03,03,15,05,5.60
2017,03,03,15,06,5.50
2017,03,03,15,07,5.50
2017,03,03,15,08,5.40
2017,03,03,15,09,5.40
2017,03,03,15,10,5.40
2017,03,03,15,11,5.40
2017,03,03,15,12,5.40
2017,03,03,15,13,5.40
2017,03,03,15,14,5.40
2017,03,03,15,15,5.40
2017,03,03,15,16,5.40
2017,03,03,15,17,5.50
2017,03,03,15,18,5.50
2017,03,03,15,19,5.50
2017,03,03,15,20,5.60
2017,03,03,15,21,5.60
2017,03,03,15,22,5.60
2017,03,03,15,23,5.60
2017,03,03,15,24,5.60
2017,03,03,15,25,5.60
2017,03,03,15,26,5.60
2017,03,03,15,27,5.60
2017,03,03,15,28,5.70
2017,03,03,15,29,5.70
2017,03,03,15,30,5.70
2017,03,03,15,31,5.80
2017,03,03,15,32,5.80
2017,03,03,15,33,5.80
2017,03,03,15,34,5.80
2017,03,03,15,35,5.80
2017,03,03,15,36,5.80
2017,03,03,15,37,5.80
2017,03,03,15,38,5.80
2017,03,03,15,39,5.80
2017,03,03,15,40,5.80
2017,03,03,15,41,5.80
2017,03,03,15,42,5.80
2017,03,03,15,43,5.80
2017,03,03,15,44,5.80
2017,03,03,15,45,5.80
2017,03,03,15,46,5.80
2017,03,03,15,47,5.80
2017,03,03,15,48,5.70
2017,03,03,15,49,5.70
2017,03,03,15,50,5.70
2017,03,03,15,51,5.70
2017,03,03,15,52,5.70
2017,03,03,15,53,5.60
2017,03,03,15,54,5.60
2017,03,03,15,55,5.50
2017,03,03,15,56,5.50
2017,03,03,15,57,5.50
2017,03,03,15,58,5.40
2017,03,03,15,59,5.40
2017,03,03,16,00,5.40
2017,03,03,16,01,5.40
2017,03,03,16,02,5.40
2017,03,03,16,03,5.40
2017,03,03,16,04,5.30
2017,03,03,16,05,5.30
2017,03,03,16,06,5.30
2017,03,03,16,07,5.30
2017,03,03,16,08,5.30
2017,03,03,16,09,5.30
2017,03,03,16,10,5.30
2017,03,03,16,11,5.30
2017,03,03,16,12,5.20
2017,03,03,16,13,5.20
2017,03,03,16,14,5.20
2017,03,03,16,15,5.20
2017,03,03,16,16,5.20
2017,03,03,16,17,5.20
2017,03,03,16,18,5.20
2017,03,03,16,19,5.20
2017,03,03,16,20,5.20
2017,03,03,16,21,5.20
2017,03,03,16,22,5.20
2017,03,03,16,23,5.20
2017,03,03,16,24,5.20
2017,03,03,16,25,5.20
2017,03,03,16,26,5.20
2017,03,03,16,27,5.20
2017,03,03,16,28,5.20
2017,03,03,16,29,5.10
2017,03,03,16,30,5.10
2017,03,03,16,31,5.10
2017,03,03,16,32,5.10
2017,03,03,16,33,5.10
2017,03,03,16,34,5.10
2017,03,03,16,35,5.10
2017,03,03,16,36,5.10
2017,03,03,16,37,5.10
2017,03,03,16,38,5.10
2017,03,03,16,39,5.10
2017,03,03,16,40,5.10
2017,03,03,16,41,5.10
2017,03,03,16,42,5.00
2017,03,03,16,43,5.00
2017,03,03,16,44,5.00
2017,03,03,16,45,5.00
2017,03,03,16,46,5.00
2017,03,03,16,47,5.00
2017,03,03,16,48,5.00
2017,03,03,16,49,5.00
2017,03,03,16,50,5.00
2017,03,03,16,51,5.00
2017,03,03,16,52,5.00
2017,03,03,16,53,5.00
2017,03,03,16,54,4.90
2017,03,03,16,55,4.90
2017,03,03,16,56,4.90
2017,03,03,16,57,4.90
2017,03,03,16,58,4.90
2017,03,03,16,59,4.80
2017,03,03,17,00,4.80
2017,03,03,17,01,4.80
2017,03,03,17,02,4.80
2017,03,03,17,03,4.80
2017,03,03,17,04,4.80
2017,03,03,17,05,4.80
2017,03,03,17,06,4.80
2017,03,03,17,07,4.80
2017,03,03,17,08,4.80
2017,03,03,17,09,4.80
2017,03,03,17,10,4.80
2017,03,03,17,11,4.80
2017,03,03,17,12,4.80
2017,03,03,17,13,4.80
2017,03,03,17,14,4.80
2017,03,03,17,15,4.80
2017,03,03,17,16,4.70
2017,03,03,17,17,4.70
2017,03,03,17,18,4.70
2017,03,03,17,19,4.70
2017,03,03,17,20,4.70
2017,03,03,17,21,4.70
2017,03,03,17,22,4.70
2017,03,03,17,23,4.70
2017,03,03,17,24,4.70
2017,03,03,17,25,4.70
2017,03,03,17,26,4.70
2017,03,03,17,27,4.70
2017,03,03,17,28,4.70
2017,03,03,17,29,4.70
2017,03,03,17,30,4.70
2017,03,03,17,31,4.70
2017,03,03,17,32,4.70
2017,03,03,17,33,4.70
2017,03,03,17,34,4.80
2017,03,03,17,35,4.70
2017,03,03,17,36,4.70
2017,03,03,17,37,4.70
2017,03,03,17,38,4.70
2017,03,03,17,39,4.70
2017,03,03,17,40,4.70
2017,03,03,17,41,4.70
2017,03,03,17,42,4.70
2017,03,03,17,43,4.70
2017,03,03,17,44,4.60
2017,03,03,17,45,4.60
2017,03,03,17,46,4.60
2017,03,03,17,47,4.60
2017,03,03,17,48,4.60
2017,03,03,17,49,4.60
2017,03,03,17,50,4.60
2017,03,03,17,51,4.60
2017,03,03,17,52,4.60
2017,03,03,17,53,4.60
2017,03,03,17,54,4.60
2017,03,03,17,55,4.60
2017,03,03,17,56,4.60
2017,03,03,17,57,4.60
2017,03,03,17,58,4.60
2017,03,03,17,59,4.60
2017,03,03,18,00,4.60
2017,03,03,18,01,4.60
2017,03,03,18,02,4.50
2017,03,03,18,03,4.50
2017,03,03,18,04,4.50
2017,03,03,18,05,4.50
2017,03,03,18,06,4.40